Year,Month,Day,Hour,Minute,Value (Times are PST for temperature in C)
2018,08,09,00,00,21.50
2018,08,09,00,01,21.50
2018,08,09,00,02,21.40
2018,08,09,00,03,21.40
2018,08,09,00,04,21.40
2018,08,09,00,05,21.40
2018,08,09,00,06,21.40
2018,08,09,00,07,21.40
2018,08,09,00,08,21.30
2018,08,09,00,09,21.30
2018,08,09,00,10,21.30
2018,08,09,00,11,21.30
2018,08,09,00,12,21.30
2018,08,09,00,13,21.30
2018,08,09,00,14,21.30
2018,08,09,00,15,21.30
2018,08,09,00,16,21.30
2018,08,09,00,17,21.20
2018,08,09,00,18,21.20
2018,08,09,00,19,21.20
2018,08,09,00,20,21.20
2018,08,09,00,21,21.20
2018,08,09,00,22,21.20
2018,08,09,00,23,21.20
2018,08,09,00,24,21.20
2018,08,09,00,25,21.20
2018,08,09,00,26,21.10
2018,08,09,00,27,21.10
2018,08,09,00,28,21.10
2018,08,09,00,29,21.10
2018,08,09,00,30,21.10
2018,08,09,00,31,21.10
2018,08,09,00,32,21.10
2018,08,09,00,33,21.00
2018,08,09,00,34,21.00
2018,08,09,00,35,21.00
2018,08,09,00,36,21.00
2018,08,09,00,37,21.00
2018,08,09,00,38,21.00
2018,08,09,00,39,20.90
2018,08,09,00,40,20.90
2018,08,09,00,41,20.90
2018,08,09,00,42,20.90
2018,08,09,00,43,20.90
2018,08,09,00,44,20.90
2018,08,09,00,45,20.90
2018,08,09,00,46,20.80
2018,08,09,00,47,20.80
2018,08,09,00,48,20.80
2018,08,09,00,49,20.80
2018,08,09,00,50,20.80
2018,08,09,00,51,20.80
2018,08,09,00,52,20.70
2018,08,09,00,53,20.70
2018,08,09,00,54,20.70
2018,08,09,00,55,20.70
2018,08,09,00,56,20.70
2018,08,09,00,57,20.60
2018,08,09,00,58,20.60
2018,08,09,00,59,20.60
2018,08,09,01,00,20.60
2018,08,09,01,01,20.50
2018,08,09,01,02,20.50
2018,08,09,01,03,20.50
2018,08,09,01,04,20.50
2018,08,09,01,05,20.50
2018,08,09,01,06,20.50
2018,08,09,01,07,20.50
2018,08,09,01,08,20.40
2018,08,09,01,09,20.40
2018,08,09,01,10,20.40
2018,08,09,01,11,20.30
2018,08,09,01,12,20.30
2018,08,09,01,13,20.30
2018,08,09,01,14,20.30
2018,08,09,01,15,20.30
2018,08,09,01,16,20.30
2018,08,09,01,17,20.30
2018,08,09,01,18,20.30
2018,08,09,01,19,20.20
2018,08,09,01,20,20.20
2018,08,09,01,21,20.20
2018,08,09,01,22,20.20
2018,08,09,01,23,20.20
2018,08,09,01,24,20.20
2018,08,09,01,25,20.10
2018,08,09,01,26,20.10
2018,08,09,01,27,20.10
2018,08,09,01,28,20.10
2018,08,09,01,29,20.10
2018,08,09,01,30,20.10
2018,08,09,01,31,20.00
2018,08,09,01,32,20.00
2018,08,09,01,33,20.00
2018,08,09,01,34,19.90
2018,08,09,01,35,19.90
2018,08,09,01,36,19.90
2018,08,09,01,37,19.90
2018,08,09,01,38,19.90
2018,08,09,01,39,19.80
2018,08,09,01,40,19.80
2018,08,09,01,41,19.80
2018,08,09,01,42,19.80
2018,08,09,01,43,19.70
2018,08,09,01,44,19.70
2018,08,09,01,45,19.70
2018,08,09,01,46,19.70
2018,08,09,01,47,19.70
2018,08,09,01,48,19.60
2018,08,09,01,49,19.60
2018,08,09,01,50,19.60
2018,08,09,01,51,19.60
2018,08,09,01,52,19.60
2018,08,09,01,53,19.50
2018,08,09,01,54,19.50
2018,08,09,01,55,19.50
2018,08,09,01,56,19.40
2018,08,09,01,57,19.40
2018,08,09,01,58,19.40
2018,08,09,01,59,19.40
2018,08,09,02,00,19.40
2018,08,09,02,01,19.30
2018,08,09,02,02,19.30
2018,08,09,02,03,19.30
2018,08,09,02,04,19.30
2018,08,09,02,05,19.30
2018,08,09,02,06,19.30
2018,08,09,02,07,19.30
2018,08,09,02,08,19.20
2018,08,09,02,09,19.20
2018,08,09,02,10,19.20
2018,08,09,02,11,19.20
2018,08,09,02,12,19.20
2018,08,09,02,13,19.20
2018,08,09,02,14,19.20
2018,08,09,02,15,19.10
2018,08,09,02,16,19.10
2018,08,09,02,17,19.10
2018,08,09,02,18,19.10
2018,08,09,02,19,19.00
2018,08,09,02,20,19.00
2018,08,09,02,21,19.00
2018,08,09,02,22,19.00
2018,08,09,02,23,19.00
2018,08,09,02,24,19.00
2018,08,09,02,25,18.90
2018,08,09,02,26,18.90
2018,08,09,02,27,18.90
2018,08,09,02,28,18.90
2018,08,09,02,29,18.90
2018,08,09,02,30,18.90
2018,08,09,02,31,18.90
2018,08,09,02,32,18.80
2018,08,09,02,33,18.80
2018,08,09,02,34,18.80
2018,08,09,02,35,18.80
2018,08,09,02,36,18.80
2018,08,09,02,37,18.80
2018,08,09,02,38,18.80
2018,08,09,02,39,18.80
2018,08,09,02,40,18.80
2018,08,09,02,41,18.80
2018,08,09,02,42,18.70
2018,08,09,02,43,18.70
2018,08,09,02,44,18.70
2018,08,09,02,45,18.70
2018,08,09,02,46,18.70
2018,08,09,02,47,18.70
2018,08,09,02,48,18.70
2018,08,09,02,49,18.70
2018,08,09,02,50,18.70
2018,08,09,02,51,18.70
2018,08,09,02,52,18.70
2018,08,09,02,53,18.60
2018,08,09,02,54,18.60
2018,08,09,02,55,18.60
2018,08,09,02,56,18.60
2018,08,09,02,57,18.60
2018,08,09,02,58,18.60
2018,08,09,02,59,18.60
2018,08,09,03,00,18.60
2018,08,09,03,01,18.60
2018,08,09,03,02,18.60
2018,08,09,03,03,18.60
2018,08,09,03,04,18.60
2018,08,09,03,05,18.60
2018,08,09,03,06,18.60
2018,08,09,03,07,18.60
2018,08,09,03,08,18.60
2018,08,09,03,09,18.60
2018,08,09,03,10,18.60
2018,08,09,03,11,18.60
2018,08,09,03,12,18.60
2018,08,09,03,13,18.60
2018,08,09,03,14,18.60
2018,08,09,03,15,18.60
2018,08,09,03,16,18.60
2018,08,09,03,17,18.60
2018,08,09,03,18,18.60
2018,08,09,03,19,18.50
2018,08,09,03,20,18.60
2018,08,09,03,21,18.50
2018,08,09,03,22,18.60
2018,08,09,03,23,18.60
2018,08,09,03,24,18.60
2018,08,09,03,25,18.60
2018,08,09,03,26,18.50
2018,08,09,03,27,18.60
2018,08,09,03,28,18.60
2018,08,09,03,29,18.60
2018,08,09,03,30,18.60
2018,08,09,03,31,18.60
2018,08,09,03,32,18.60
2018,08,09,03,33,18.60
2018,08,09,03,34,18.60
2018,08,09,03,35,18.60
2018,08,09,03,36,18.70
2018,08,09,03,37,18.70
2018,08,09,03,38,18.70
2018,08,09,03,39,18.70
2018,08,09,03,40,18.70
2018,08,09,03,41,18.70
2018,08,09,03,42,18.70
2018,08,09,03,43,18.70
2018,08,09,03,44,18.80
2018,08,09,03,45,18.80
2018,08,09,03,46,18.80
2018,08,09,03,47,18.80
2018,08,09,03,48,18.90
2018,08,09,03,49,18.90
2018,08,09,03,50,18.90
2018,08,09,03,51,18.90
2018,08,09,03,52,18.90
2018,08,09,03,53,18.90
2018,08,09,03,54,18.90
2018,08,09,03,55,18.90
2018,08,09,03,56,18.90
2018,08,09,03,57,18.90
2018,08,09,03,58,18.90
2018,08,09,03,59,18.90
2018,08,09,04,00,18.90
2018,08,09,04,01,18.90
2018,08,09,04,02,18.90
2018,08,09,04,03,18.90
2018,08,09,04,04,18.90
2018,08,09,04,05,18.90
2018,08,09,04,06,18.90
2018,08,09,04,07,18.90
2018,08,09,04,08,18.90
2018,08,09,04,09,18.90
2018,08,09,04,10,18.90
2018,08,09,04,11,18.90
2018,08,09,04,12,18.90
2018,08,09,04,13,18.90
2018,08,09,04,14,18.90
2018,08,09,04,15,18.80
2018,08,09,04,16,18.80
2018,08,09,04,17,18.80
2018,08,09,04,18,18.80
2018,08,09,04,19,18.80
2018,08,09,04,20,18.90
2018,08,09,04,21,18.90
2018,08,09,04,22,18.90
2018,08,09,04,23,18.90
2018,08,09,04,24,18.90
2018,08,09,04,25,18.90
2018,08,09,04,26,18.90
2018,08,09,04,27,18.90
2018,08,09,04,28,18.80
2018,08,09,04,29,18.80
2018,08,09,04,30,18.80
2018,08,09,04,31,18.80
2018,08,09,04,32,18.70
2018,08,09,04,33,18.70
2018,08,09,04,34,18.60
2018,08,09,04,35,18.60
2018,08,09,04,36,18.50
2018,08,09,04,37,18.50
2018,08,09,04,38,18.40
2018,08,09,04,39,18.40
2018,08,09,04,40,18.40
2018,08,09,04,41,18.30
2018,08,09,04,42,18.30
2018,08,09,04,43,18.30
2018,08,09,04,44,18.30
2018,08,09,04,45,18.30
2018,08,09,04,46,18.20
2018,08,09,04,47,18.20
2018,08,09,04,48,18.20
2018,08,09,04,49,18.20
2018,08,09,04,50,18.20
2018,08,09,04,51,18.20
2018,08,09,04,52,18.20
2018,08,09,04,53,18.20
2018,08,09,04,54,18.20
2018,08,09,04,55,18.10
2018,08,09,04,56,18.10
2018,08,09,04,57,18.10
2018,08,09,04,58,18.10
2018,08,09,04,59,18.10
2018,08,09,05,00,18.00
2018,08,09,05,01,18.10
2018,08,09,05,02,18.00
2018,08,09,05,03,18.00
2018,08,09,05,04,18.00
2018,08,09,05,05,18.00
2018,08,09,05,06,18.10
2018,08,09,05,07,18.10
2018,08,09,05,08,18.00
2018,08,09,05,09,18.00
2018,08,09,05,10,18.00
2018,08,09,05,11,17.90
2018,08,09,05,12,17.90
2018,08,09,05,13,17.90
2018,08,09,05,14,17.80
2018,08,09,05,15,17.80
2018,08,09,05,16,17.80
2018,08,09,05,17,17.70
2018,08,09,05,18,17.70
2018,08,09,05,19,17.70
2018,08,09,05,20,17.70
2018,08,09,05,21,17.70
2018,08,09,05,22,17.60
2018,08,09,05,23,17.60
2018,08,09,05,24,17.60
2018,08,09,05,25,17.60
2018,08,09,05,26,17.60
2018,08,09,05,27,17.50
2018,08,09,05,28,17.50
2018,08,09,05,29,17.40
2018,08,09,05,30,17.40
2018,08,09,05,31,17.40
2018,08,09,05,32,17.40
2018,08,09,05,33,17.30
2018,08,09,05,34,17.30
2018,08,09,05,35,17.30
2018,08,09,05,36,17.20
2018,08,09,05,37,17.20
2018,08,09,05,38,17.20
2018,08,09,05,39,17.20
2018,08,09,05,40,17.10
2018,08,09,05,41,17.10
2018,08,09,05,42,17.10
2018,08,09,05,43,17.00
2018,08,09,05,44,17.00
2018,08,09,05,45,17.00
2018,08,09,05,46,16.90
2018,08,09,05,47,16.90
2018,08,09,05,48,16.90
2018,08,09,05,49,16.80
2018,08,09,05,50,16.80
2018,08,09,05,51,16.80
2018,08,09,05,52,16.70
2018,08,09,05,53,16.70
2018,08,09,05,54,16.70
2018,08,09,05,55,16.70
2018,08,09,05,56,16.60
2018,08,09,05,57,16.60
2018,08,09,05,58,16.60
2018,08,09,05,59,16.50
2018,08,09,06,00,16.50
2018,08,09,06,01,16.50
2018,08,09,06,02,16.40
2018,08,09,06,03,16.40
2018,08,09,06,04,16.40
2018,08,09,06,05,16.30
2018,08,09,06,06,16.30
2018,08,09,06,07,16.30
2018,08,09,06,08,16.30
2018,08,09,06,09,16.20
2018,08,09,06,10,16.20
2018,08,09,06,11,16.20
2018,08,09,06,12,16.20
2018,08,09,06,13,16.10
2018,08,09,06,14,16.10
2018,08,09,06,15,16.10
2018,08,09,06,16,16.00
2018,08,09,06,17,16.00
2018,08,09,06,18,16.00
2018,08,09,06,19,15.90
2018,08,09,06,20,15.90
2018,08,09,06,21,15.90
2018,08,09,06,22,15.90
2018,08,09,06,23,15.90
2018,08,09,06,24,15.80
2018,08,09,06,25,15.80
2018,08,09,06,26,15.80
2018,08,09,06,27,15.70
2018,08,09,06,28,15.70
2018,08,09,06,29,15.70
2018,08,09,06,30,15.70
2018,08,09,06,31,15.70
2018,08,09,06,32,15.70
2018,08,09,06,33,15.70
2018,08,09,06,34,15.70
2018,08,09,06,35,15.60
2018,08,09,06,36,15.60
2018,08,09,06,37,15.60
2018,08,09,06,38,15.60
2018,08,09,06,39,15.60
2018,08,09,06,40,15.60
2018,08,09,06,41,15.60
2018,08,09,06,42,15.60
2018,08,09,06,43,15.50
2018,08,09,06,44,15.50
2018,08,09,06,45,15.50
2018,08,09,06,46,15.50
2018,08,09,06,47,15.50
2018,08,09,06,48,15.50
2018,08,09,06,49,15.50
2018,08,09,06,50,15.50
2018,08,09,06,51,15.50
2018,08,09,06,52,15.40
2018,08,09,06,53,15.40
2018,08,09,06,54,15.40
2018,08,09,06,55,15.50
2018,08,09,06,56,15.50
2018,08,09,06,57,15.50
2018,08,09,06,58,15.60
2018,08,09,06,59,15.60
2018,08,09,07,00,15.60
2018,08,09,07,01,15.60
2018,08,09,07,02,15.70
2018,08,09,07,03,15.70
2018,08,09,07,04,15.70
2018,08,09,07,05,15.70
2018,08,09,07,06,15.70
2018,08,09,07,07,15.80
2018,08,09,07,08,15.80
2018,08,09,07,09,15.80
2018,08,09,07,10,15.80
2018,08,09,07,11,15.80
2018,08,09,07,12,15.80
2018,08,09,07,13,15.90
2018,08,09,07,14,15.90
2018,08,09,07,15,15.90
2018,08,09,07,16,15.90
2018,08,09,07,17,15.90
2018,08,09,07,18,16.00
2018,08,09,07,19,16.00
2018,08,09,07,20,16.00
2018,08,09,07,21,16.10
2018,08,09,07,22,16.10
2018,08,09,07,23,16.10
2018,08,09,07,24,16.10
2018,08,09,07,25,16.10
2018,08,09,07,26,16.10
2018,08,09,07,27,16.10
2018,08,09,07,28,16.10
2018,08,09,07,29,16.10
2018,08,09,07,30,16.10
2018,08,09,07,31,16.10
2018,08,09,07,32,16.10
2018,08,09,07,33,16.10
2018,08,09,07,34,16.20
2018,08,09,07,35,16.20
2018,08,09,07,36,16.30
2018,08,09,07,37,16.30
2018,08,09,07,38,16.30
2018,08,09,07,39,16.40
2018,08,09,07,40,16.40
2018,08,09,07,41,16.40
2018,08,09,07,42,16.50
2018,08,09,07,43,16.50
2018,08,09,07,44,16.50
2018,08,09,07,45,16.60
2018,08,09,07,46,16.60
2018,08,09,07,47,16.70
2018,08,09,07,48,16.70
2018,08,09,07,49,16.70
2018,08,09,07,50,16.80
2018,08,09,07,51,16.80
2018,08,09,07,52,16.80
2018,08,09,07,53,16.90
2018,08,09,07,54,17.00
2018,08,09,07,55,17.00
2018,08,09,07,56,17.10
2018,08,09,07,57,17.10
2018,08,09,07,58,17.20
2018,08,09,07,59,17.20
2018,08,09,08,00,17.30
2018,08,09,08,01,17.40
2018,08,09,08,02,17.40
2018,08,09,08,03,17.50
2018,08,09,08,04,17.50
2018,08,09,08,05,17.60
2018,08,09,08,06,17.60
2018,08,09,08,07,17.70
2018,08,09,08,08,17.70
2018,08,09,08,09,17.80
2018,08,09,08,10,17.80
2018,08,09,08,11,17.80
2018,08,09,08,12,17.90
2018,08,09,08,13,17.90
2018,08,09,08,14,18.00
2018,08,09,08,15,18.00
2018,08,09,08,16,18.10
2018,08,09,08,17,18.10
2018,08,09,08,18,18.20
2018,08,09,08,19,18.20
2018,08,09,08,20,18.30
2018,08,09,08,21,18.30
2018,08,09,08,22,18.30
2018,08,09,08,23,18.40
2018,08,09,08,24,18.40
2018,08,09,08,25,18.50
2018,08,09,08,26,18.50
2018,08,09,08,27,18.50
2018,08,09,08,28,18.60
2018,08,09,08,29,18.70
2018,08,09,08,30,18.70
2018,08,09,08,31,18.80
2018,08,09,08,32,18.90
2018,08,09,08,33,19.00
2018,08,09,08,34,19.10
2018,08,09,08,35,19.20
2018,08,09,08,36,19.30
2018,08,09,08,37,19.40
2018,08,09,08,38,19.40
2018,08,09,08,39,19.50
2018,08,09,08,40,19.50
2018,08,09,08,41,19.60
2018,08,09,08,42,19.60
2018,08,09,08,43,19.60
2018,08,09,08,44,19.60
2018,08,09,08,45,19.70
2018,08,09,08,46,19.70
2018,08,09,08,47,19.70
2018,08,09,08,48,19.80
2018,08,09,08,49,19.80
2018,08,09,08,50,19.80
2018,08,09,08,51,19.80
2018,08,09,08,52,19.80
2018,08,09,08,53,19.80
2018,08,09,08,54,19.90
2018,08,09,08,55,19.90
2018,08,09,08,56,19.90
2018,08,09,08,57,20.00
2018,08,09,08,58,20.00
2018,08,09,08,59,20.10
2018,08,09,09,00,20.20
2018,08,09,09,01,20.30
2018,08,09,09,02,20.40
2018,08,09,09,03,20.50
2018,08,09,09,04,20.60
2018,08,09,09,05,20.70
2018,08,09,09,06,20.80
2018,08,09,09,07,20.80
2018,08,09,09,08,20.90
2018,08,09,09,09,21.00
2018,08,09,09,10,21.10
2018,08,09,09,11,21.30
2018,08,09,09,12,21.40
2018,08,09,09,13,21.50
2018,08,09,09,14,21.60
2018,08,09,09,15,21.70
2018,08,09,09,16,21.90
2018,08,09,09,17,22.00
2018,08,09,09,18,22.10
2018,08,09,09,19,22.20
2018,08,09,09,20,22.30
2018,08,09,09,21,22.50
2018,08,09,09,22,22.50
2018,08,09,09,23,22.60
2018,08,09,09,24,22.70
2018,08,09,09,25,22.90
2018,08,09,09,26,23.00
2018,08,09,09,27,23.10
2018,08,09,09,28,23.20
2018,08,09,09,29,23.30
2018,08,09,09,30,23.40
2018,08,09,09,31,23.50
2018,08,09,09,32,23.60
2018,08,09,09,33,23.70
2018,08,09,09,34,23.80
2018,08,09,09,35,23.80
2018,08,09,09,36,23.90
2018,08,09,09,37,24.00
2018,08,09,09,38,24.10
2018,08,09,09,39,24.20
2018,08,09,09,40,24.30
2018,08,09,09,41,24.50
2018,08,09,09,42,24.60
2018,08,09,09,43,24.70
2018,08,09,09,44,24.70
2018,08,09,09,45,24.80
2018,08,09,09,46,24.80
2018,08,09,09,47,24.90
2018,08,09,09,48,24.90
2018,08,09,09,49,25.00
2018,08,09,09,50,25.00
2018,08,09,09,51,25.00
2018,08,09,09,52,25.10
2018,08,09,09,53,25.10
2018,08,09,09,54,25.10
2018,08,09,09,55,25.20
2018,08,09,09,56,25.20
2018,08,09,09,57,25.20
2018,08,09,09,58,25.20
2018,08,09,09,59,25.20
2018,08,09,10,00,25.30
2018,08,09,10,01,25.30
2018,08,09,10,02,25.30
2018,08,09,10,03,25.20
2018,08,09,10,04,25.20
2018,08,09,10,05,25.20
2018,08,09,10,06,25.20
2018,08,09,10,07,25.20
2018,08,09,10,08,25.30
2018,08,09,10,09,25.30
2018,08,09,10,10,25.30
2018,08,09,10,11,25.30
2018,08,09,10,12,25.30
2018,08,09,10,13,25.30
2018,08,09,10,14,25.30
2018,08,09,10,15,25.30
2018,08,09,10,16,25.30
2018,08,09,10,17,25.40
2018,08,09,10,18,25.40
2018,08,09,10,19,25.30
2018,08,09,10,20,25.30
2018,08,09,10,21,25.30
2018,08,09,10,22,25.30
2018,08,09,10,23,25.30
2018,08,09,10,24,25.20
2018,08,09,10,25,25.20
2018,08,09,10,26,25.20
2018,08,09,10,27,25.10
2018,08,09,10,28,25.00
2018,08,09,10,29,24.90
2018,08,09,10,30,24.90
2018,08,09,10,31,24.80
2018,08,09,10,32,24.80
2018,08,09,10,33,24.70
2018,08,09,10,34,24.70
2018,08,09,10,35,24.60
2018,08,09,10,36,24.60
2018,08,09,10,37,24.60
2018,08,09,10,38,24.60
2018,08,09,10,39,24.60
2018,08,09,10,40,24.60
2018,08,09,10,41,24.60
2018,08,09,10,42,24.60
2018,08,09,10,43,24.60
2018,08,09,10,44,24.60
2018,08,09,10,45,24.60
2018,08,09,10,46,24.60
2018,08,09,10,47,24.60
2018,08,09,10,48,24.60
2018,08,09,10,49,24.60
2018,08,09,10,50,24.60
2018,08,09,10,51,24.60
2018,08,09,10,52,24.70
2018,08,09,10,53,24.70
2018,08,09,10,54,24.80
2018,08,09,10,55,24.90
2018,08,09,10,56,25.00
2018,08,09,10,57,25.10
2018,08,09,10,58,25.20
2018,08,09,10,59,25.20
2018,08,09,11,00,25.30
2018,08,09,11,01,25.30
2018,08,09,11,02,25.30
2018,08,09,11,03,25.20
2018,08,09,11,04,25.20
2018,08,09,11,05,25.20
2018,08,09,11,06,25.10
2018,08,09,11,07,25.10
2018,08,09,11,08,25.00
2018,08,09,11,09,25.10
2018,08,09,11,10,25.10
2018,08,09,11,11,25.20
2018,08,09,11,12,25.20
2018,08,09,11,13,25.30
2018,08,09,11,14,25.30
2018,08,09,11,15,25.30
2018,08,09,11,16,25.30
2018,08,09,11,17,25.30
2018,08,09,11,18,25.30
2018,08,09,11,19,25.30
2018,08,09,11,20,25.30
2018,08,09,11,21,25.20
2018,08,09,11,22,25.20
2018,08,09,11,23,25.20
2018,08,09,11,24,25.20
2018,08,09,11,25,25.20
2018,08,09,11,26,25.20
2018,08,09,11,27,25.30
2018,08,09,11,28,25.30
2018,08,09,11,29,25.40
2018,08,09,11,30,25.40
2018,08,09,11,31,25.50
2018,08,09,11,32,25.50
2018,08,09,11,33,25.50
2018,08,09,11,34,25.50
2018,08,09,11,35,25.40
2018,08,09,11,36,25.40
2018,08,09,11,37,25.50
2018,08,09,11,38,25.60
2018,08,09,11,39,25.70
2018,08,09,11,40,25.90
2018,08,09,11,41,26.10
2018,08,09,11,42,26.20
2018,08,09,11,43,26.40
2018,08,09,11,44,26.40
2018,08,09,11,45,26.40
2018,08,09,11,46,26.40
2018,08,09,11,47,26.40
2018,08,09,11,48,26.40
2018,08,09,11,49,26.30
2018,08,09,11,50,26.30
2018,08,09,11,51,26.40
2018,08,09,11,52,26.40
2018,08,09,11,53,26.50
2018,08,09,11,54,26.50
2018,08,09,11,55,26.50
2018,08,09,11,56,26.60
2018,08,09,11,57,26.60
2018,08,09,11,58,26.60
2018,08,09,11,59,26.60
2018,08,09,12,00,26.60
2018,08,09,12,01,26.60
2018,08,09,12,02,26.60
2018,08,09,12,03,26.70
2018,08,09,12,04,26.80
2018,08,09,12,05,26.80
2018,08,09,12,06,26.70
2018,08,09,12,07,26.60
2018,08,09,12,08,26.60
2018,08,09,12,09,26.60
2018,08,09,12,10,26.70
2018,08,09,12,11,26.70
2018,08,09,12,12,26.70
2018,08,09,12,13,26.70
2018,08,09,12,14,26.80
2018,08,09,12,15,26.80
2018,08,09,12,16,26.70
2018,08,09,12,17,26.70
2018,08,09,12,18,26.80
2018,08,09,12,19,26.90
2018,08,09,12,20,26.90
2018,08,09,12,21,27.00
2018,08,09,12,22,27.00
2018,08,09,12,23,27.00
2018,08,09,12,24,27.10
2018,08,09,12,25,27.00
2018,08,09,12,26,26.90
2018,08,09,12,27,26.90
2018,08,09,12,28,26.90
2018,08,09,12,29,27.00
2018,08,09,12,30,27.00
2018,08,09,12,31,27.10
2018,08,09,12,32,27.20
2018,08,09,12,33,27.20
2018,08,09,12,34,27.30
2018,08,09,12,35,27.30
2018,08,09,12,36,27.40
2018,08,09,12,37,27.40
2018,08,09,12,38,27.40
2018,08,09,12,39,27.40
2018,08,09,12,40,27.50
2018,08,09,12,41,27.50
2018,08,09,12,42,27.60
2018,08,09,12,43,27.70
2018,08,09,12,44,27.70
2018,08,09,12,45,27.60
2018,08,09,12,46,27.60
2018,08,09,12,47,27.60
2018,08,09,12,48,27.60
2018,08,09,12,49,27.60
2018,08,09,12,50,27.70
2018,08,09,12,51,27.80
2018,08,09,12,52,27.80
2018,08,09,12,53,27.80
2018,08,09,12,54,27.70
2018,08,09,12,55,27.70
2018,08,09,12,56,27.80
2018,08,09,12,57,27.80
2018,08,09,12,58,27.80
2018,08,09,12,59,27.90
2018,08,09,13,00,27.90
2018,08,09,13,01,27.90
2018,08,09,13,02,27.90
2018,08,09,13,03,27.90
2018,08,09,13,04,27.90
2018,08,09,13,05,28.00
2018,08,09,13,06,28.00
2018,08,09,13,07,28.10
2018,08,09,13,08,28.10
2018,08,09,13,09,28.20
2018,08,09,13,10,28.20
2018,08,09,13,11,28.20
2018,08,09,13,12,28.20
2018,08,09,13,13,28.10
2018,08,09,13,14,28.10
2018,08,09,13,15,28.10
2018,08,09,13,16,28.20
2018,08,09,13,17,28.30
2018,08,09,13,18,28.40
2018,08,09,13,19,28.40
2018,08,09,13,20,28.40
2018,08,09,13,21,28.40
2018,08,09,13,22,28.40
2018,08,09,13,23,28.40
2018,08,09,13,24,28.40
2018,08,09,13,25,28.40
2018,08,09,13,26,28.40
2018,08,09,13,27,28.40
2018,08,09,13,28,28.40
2018,08,09,13,29,28.40
2018,08,09,13,30,28.40
2018,08,09,13,31,28.30
2018,08,09,13,32,28.30
2018,08,09,13,33,28.30
2018,08,09,13,34,28.40
2018,08,09,13,35,28.40
2018,08,09,13,36,28.40
2018,08,09,13,37,28.40
2018,08,09,13,38,28.40
2018,08,09,13,39,28.40
2018,08,09,13,40,28.40
2018,08,09,13,41,28.40
2018,08,09,13,42,28.50
2018,08,09,13,43,28.60
2018,08,09,13,44,28.50
2018,08,09,13,45,28.40
2018,08,09,13,46,28.30
2018,08,09,13,47,28.20
2018,08,09,13,48,28.10
2018,08,09,13,49,28.10
2018,08,09,13,50,28.00
2018,08,09,13,51,27.90
2018,08,09,13,52,27.80
2018,08,09,13,53,27.70
2018,08,09,13,54,27.60
2018,08,09,13,55,27.50
2018,08,09,13,56,27.40
2018,08,09,13,57,27.50
2018,08,09,13,58,27.40
2018,08,09,13,59,27.40
2018,08,09,14,00,27.40
2018,08,09,14,01,27.40
2018,08,09,14,02,27.40
2018,08,09,14,03,27.40
2018,08,09,14,04,27.40
2018,08,09,14,05,27.40
2018,08,09,14,06,27.30
2018,08,09,14,07,27.30
2018,08,09,14,08,27.30
2018,08,09,14,09,27.30
2018,08,09,14,10,27.30
2018,08,09,14,11,27.30
2018,08,09,14,12,27.30
2018,08,09,14,13,27.40
2018,08,09,14,14,27.40
2018,08,09,14,15,27.40
2018,08,09,14,16,27.50
2018,08,09,14,17,27.50
2018,08,09,14,18,27.60
2018,08,09,14,19,27.70
2018,08,09,14,20,27.70
2018,08,09,14,21,27.70
2018,08,09,14,22,27.70
2018,08,09,14,23,27.80
2018,08,09,14,24,27.80
2018,08,09,14,25,27.90
2018,08,09,14,26,27.90
2018,08,09,14,27,28.00
2018,08,09,14,28,28.00
2018,08,09,14,29,28.10
2018,08,09,14,30,28.20
2018,08,09,14,31,28.30
2018,08,09,14,32,28.30
2018,08,09,14,33,28.40
2018,08,09,14,34,28.40
2018,08,09,14,35,28.40
2018,08,09,14,36,28.40
2018,08,09,14,37,28.40
2018,08,09,14,38,28.40
2018,08,09,14,39,28.40
2018,08,09,14,40,28.40
2018,08,09,14,41,28.40
2018,08,09,14,42,28.40
2018,08,09,14,43,28.40
2018,08,09,14,44,28.50
2018,08,09,14,45,28.50
2018,08,09,14,46,28.60
2018,08,09,14,47,28.70
2018,08,09,14,48,28.70
2018,08,09,14,49,28.80
2018,08,09,14,50,28.90
2018,08,09,14,51,29.00
2018,08,09,14,52,29.00
2018,08,09,14,53,29.10
2018,08,09,14,54,29.10
2018,08,09,14,55,29.20
2018,08,09,14,56,29.20
2018,08,09,14,57,29.30
2018,08,09,14,58,29.30
2018,08,09,14,59,29.40
2018,08,09,15,00,29.50
2018,08,09,15,01,29.60
2018,08,09,15,02,29.70
2018,08,09,15,03,29.80
2018,08,09,15,04,29.90
2018,08,09,15,05,30.00
2018,08,09,15,06,30.10
2018,08,09,15,07,30.20
2018,08,09,15,08,30.20
2018,08,09,15,09,30.30
2018,08,09,15,10,30.40
2018,08,09,15,11,30.60
2018,08,09,15,12,30.80
2018,08,09,15,13,31.00
2018,08,09,15,14,31.10
2018,08,09,15,15,31.10
2018,08,09,15,16,31.20
2018,08,09,15,17,31.20
2018,08,09,15,18,31.30
2018,08,09,15,19,31.30
2018,08,09,15,20,31.20
2018,08,09,15,21,31.20
2018,08,09,15,22,31.30
2018,08,09,15,23,31.40
2018,08,09,15,24,31.50
2018,08,09,15,25,31.60
2018,08,09,15,26,31.70
2018,08,09,15,27,31.70
2018,08,09,15,28,31.60
2018,08,09,15,29,31.60
2018,08,09,15,30,31.60
2018,08,09,15,31,31.60
2018,08,09,15,32,31.60
2018,08,09,15,33,31.70
2018,08,09,15,34,31.70
2018,08,09,15,35,31.60
2018,08,09,15,36,31.60
2018,08,09,15,37,31.60
2018,08,09,15,38,31.60
2018,08,09,15,39,31.60
2018,08,09,15,40,31.50
2018,08,09,15,41,31.50
2018,08,09,15,42,31.60
2018,08,09,15,43,31.60
2018,08,09,15,44,31.60
2018,08,09,15,45,31.70
2018,08,09,15,46,31.80
2018,08,09,15,47,31.90
2018,08,09,15,48,31.90
2018,08,09,15,49,32.00
2018,08,09,15,50,32.10
2018,08,09,15,51,32.10
2018,08,09,15,52,32.10
2018,08,09,15,53,32.10
2018,08,09,15,54,32.10
2018,08,09,15,55,32.10
2018,08,09,15,56,32.10
2018,08,09,15,57,32.10
2018,08,09,15,58,32.10
2018,08,09,15,59,32.10
2018,08,09,16,00,32.10
2018,08,09,16,01,32.10
2018,08,09,16,02,32.10
2018,08,09,16,03,32.10
2018,08,09,16,04,32.10
2018,08,09,16,05,32.10
2018,08,09,16,06,32.10
2018,08,09,16,07,32.10
2018,08,09,16,08,32.20
2018,08,09,16,09,32.20
2018,08,09,16,10,32.30
2018,08,09,16,11,32.40
2018,08,09,16,12,32.40
2018,08,09,16,13,32.50
2018,08,09,16,14,32.60
2018,08,09,16,15,32.60
2018,08,09,16,16,32.70
2018,08,09,16,17,32.80
2018,08,09,16,18,32.90
2018,08,09,16,19,32.90
2018,08,09,16,20,32.90
2018,08,09,16,21,32.90
2018,08,09,16,22,32.80
2018,08,09,16,23,32.80
2018,08,09,16,24,32.80
2018,08,09,16,25,32.90
2018,08,09,16,26,32.90
2018,08,09,16,27,32.90
2018,08,09,16,28,32.90
2018,08,09,16,29,32.90
2018,08,09,16,30,33.00
2018,08,09,16,31,33.00
2018,08,09,16,32,33.00
2018,08,09,16,33,33.00
2018,08,09,16,34,32.90
2018,08,09,16,35,32.90
2018,08,09,16,36,32.90
2018,08,09,16,37,32.90
2018,08,09,16,38,32.80
2018,08,09,16,39,32.80
2018,08,09,16,40,32.80
2018,08,09,16,41,32.80
2018,08,09,16,42,32.80
2018,08,09,16,43,32.80
2018,08,09,16,44,32.90
2018,08,09,16,45,33.00
2018,08,09,16,46,33.00
2018,08,09,16,47,33.10
2018,08,09,16,48,33.10
2018,08,09,16,49,33.00
2018,08,09,16,50,32.90
2018,08,09,16,51,32.80
2018,08,09,16,52,32.80
2018,08,09,16,53,32.70
2018,08,09,16,54,32.60
2018,08,09,16,55,32.50
2018,08,09,16,56,32.50
2018,08,09,16,57,32.40
2018,08,09,16,58,32.40
2018,08,09,16,59,32.40
2018,08,09,17,00,32.40
2018,08,09,17,01,32.40
2018,08,09,17,02,32.40
2018,08,09,17,03,32.40
2018,08,09,17,04,32.50
2018,08,09,17,05,32.40
2018,08,09,17,06,32.40
2018,08,09,17,07,32.40
2018,08,09,17,08,32.40
2018,08,09,17,09,32.40
2018,08,09,17,10,32.40
2018,08,09,17,11,32.50
2018,08,09,17,12,32.50
2018,08,09,17,13,32.50
2018,08,09,17,14,32.40
2018,08,09,17,15,32.40
2018,08,09,17,16,32.40
2018,08,09,17,17,32.40
2018,08,09,17,18,32.40
2018,08,09,17,19,32.40